EUTELSAT 7C

Last updated on Tue Sep 22 2026 00:03:15 GMT+0000 (Coordinated Universal Time)

1 44334U 19034B 26264.56178435 .00000045 00000+0 00000+0 0 9991 2 44334 0.0682 181.9022 0003314 341.4379 46.3532 1.00271766 7809
UTC large
Height (km)
Speed (km/s)
/
Latitude / Longitude
Inclination (degrees)
Orbital Period (minutes)
Azimuth
Elevation
Range (km)
Doppler Factor

Next 0 passes for location: London (51.5072 / 0.1276)

No passes found over London.
EUTELSAT 7C